Location: Buisson
(44.2787°N, 4.9969°E)
Time: 00:44:58
(UTC+00:00)

Cosmos 1943 Rocket - Pass Details

Date: 18 April 2021
Orbit: 812 x 843 km, 71.0° (Epoch: 07 May)

Event Time Altitude Azimuth Distance (km) Brightness Sun altitude
Exits shadow 04:06:10 - 228° (SW) 2,556 4.1 -8.4°
Reaches altitude 10° 04:06:26 10° 229° (SW) 2,458 4.0 -8.4°
Maximum altitude 04:11:50 45° 302° (WNW) 1,137 2.7 -7.5°
Drops below altitude 10° 04:17:15 10° 15° (NNE) 2,464 5.2 -6.6°
Sets 04:19:49 0° 21° (NNE) 3,398 6.1 -6.2°
